Weather History for Juneau, WI

Change the Weather History Date:

Friday, August 31, 2012

  Actual Average Record
Temperature  
Mean Temperature 74 °F -  
Max Temperature 84 °F 76 °F 140 °F (2001)
Min Temperature 64 °F 56 °F 42 °F (1987)
Cooling Degree Days 9    
Growing Degree Days 24 (Base 50)    
Moisture  
Dew Point 57 °F    
Average Humidity 58    
Maximum Humidity 83    
Minimum Humidity 44    
Precipitation  
Precipitation 0.00 in - - ()
Sea Level Pressure  
Sea Level Pressure 30.03 in    
Wind  
Wind Speed 7 mph (WSW)    
Max Wind Speed 10 mph    
Max Gust Speed 16 mph    
Visibility 10 miles    
Events      
Averages and records for this station are not official NWS values.
T = Trace of Precipitation, MM = Missing Value Source: NWS Daily Summary

Daily Weather History Graph

Daily Weather History Graph

Search for Another Location

Airport:

Trip Planner

Search our weather history database for the weather conditions in past years. The results will help you decide how hot, cold, wet, or windy it might be!

Date:

Astronomy

Aug. 31, 2012 Rise Set
Actual Time 6:18 AM CDT 7:30 PM CDT
Civil Twilight 5:48 AM CDT 8:00 PM CDT
Nautical Twilight 5:13 AM CDT 8:35 PM CDT
Astronomical Twilight 4:35 AM CDT 9:12 PM CDT
Moon 7:14 PM CDT (8/31) 6:25 AM CDT (8/31)
Length of Visible Light 14h 11m
Length of Day
13h 12m
Full, 100% of the Moon is Illuminated
Aug 31
Full
Sep 8
Last Quarter
Sep 15
New
Sep 22
First Quarter
Sep 29
Full

Hourly Weather History & Observations

Time (CDT) Temp. Heat Index Dew Point Humidity Pressure Visibility Wind Dir Wind Speed Gust Speed Precip Events Conditions
12:15 AM 71.6 °F - 59.0 °F 64% 29.95 in 10.0 mi South 8.1 mph - N/A   Clear
12:35 AM 69.8 °F - 59.0 °F 68% 29.96 in 10.0 mi SSW 5.8 mph - N/A   Clear
12:55 AM 69.8 °F - 59.0 °F 68% 29.96 in 10.0 mi South 5.8 mph - N/A   Clear
1:15 AM 68.0 °F - 59.0 °F 73% 29.96 in 10.0 mi South 6.9 mph - N/A   Clear
1:35 AM 69.8 °F - 59.0 °F 68% 29.96 in 10.0 mi SSW 5.8 mph - N/A   Clear
1:55 AM 68.0 °F - 59.0 °F 73% 29.96 in 10.0 mi South 5.8 mph - N/A   Clear
2:15 AM 68.0 °F - 59.0 °F 73% 29.95 in 10.0 mi South 6.9 mph - N/A   Clear
2:35 AM 68.0 °F - 59.0 °F 73% 29.96 in 10.0 mi SSW 6.9 mph - N/A   Clear
2:55 AM 68.0 °F - 59.0 °F 73% 29.95 in 10.0 mi South 8.1 mph - N/A   Clear
3:15 AM 68.0 °F - 59.0 °F 73% 29.95 in 10.0 mi SSW 8.1 mph - N/A   Clear
3:35 AM 68.0 °F - 59.0 °F 73% 29.96 in 10.0 mi SSW 9.2 mph - N/A   Clear
3:55 AM 68.0 °F - 59.0 °F 73% 29.96 in 10.0 mi SSW 9.2 mph - N/A   Clear
4:15 AM 68.0 °F - 59.0 °F 73% 29.97 in 10.0 mi SSW 8.1 mph - N/A   Clear
4:35 AM 66.2 °F - 59.0 °F 78% 29.97 in 10.0 mi SSW 6.9 mph - N/A   Clear
4:55 AM 66.2 °F - 59.0 °F 78% 29.97 in 10.0 mi SSW 8.1 mph - N/A   Clear
5:15 AM 64.4 °F - 59.0 °F 83% 29.98 in 10.0 mi SSW 6.9 mph - N/A   Clear
5:35 AM 64.4 °F - 59.0 °F 83% 29.98 in 10.0 mi SSW 8.1 mph - N/A   Clear
5:55 AM 64.4 °F - 59.0 °F 83% 29.99 in 10.0 mi SSW 5.8 mph - N/A   Clear
6:15 AM 64.4 °F - 59.0 °F 83% 30.00 in 10.0 mi SW 4.6 mph - N/A   Clear
6:35 AM 64.4 °F - 59.0 °F 83% 30.01 in 10.0 mi WSW 3.5 mph - N/A   Clear
6:55 AM 64.4 °F - 59.0 °F 83% 30.02 in 10.0 mi SSW 4.6 mph - N/A   Clear
7:15 AM 64.4 °F - 59.0 °F 83% 30.02 in 10.0 mi SSW 6.9 mph - N/A   Clear
7:35 AM 68.0 °F - 59.0 °F 73% 30.02 in 10.0 mi SW 4.6 mph - N/A   Clear
7:55 AM 69.8 °F - 59.0 °F 68% 30.02 in 10.0 mi SW 5.8 mph - N/A   Clear
8:15 AM 71.6 °F - 57.2 °F 60% 30.02 in 10.0 mi WSW 6.9 mph - N/A   Clear
8:35 AM 71.6 °F - 57.2 °F 60% 30.03 in 10.0 mi WSW 6.9 mph - N/A   Clear
8:55 AM 73.4 °F - 55.4 °F 53% 30.02 in 10.0 mi WSW 8.1 mph - N/A   Clear
9:15 AM 75.2 °F - 55.4 °F 50% 30.03 in 10.0 mi WSW 8.1 mph - N/A   Clear
9:35 AM 77.0 °F - 55.4 °F 47% 30.04 in 10.0 mi WSW 9.2 mph - N/A   Clear
9:55 AM 77.0 °F - 57.2 °F 50% 30.04 in 10.0 mi WSW 9.2 mph - N/A   Scattered Clouds
10:15 AM 78.8 °F - 55.4 °F 44% 30.04 in 10.0 mi West 6.9 mph - N/A   Clear
10:35 AM 78.8 °F - 55.4 °F 44% 30.04 in 10.0 mi West 3.5 mph - N/A   Clear
10:55 AM 80.6 °F 80.8 °F 57.2 °F 45% 30.05 in 10.0 mi NW 6.9 mph - N/A   Clear
11:15 AM 80.6 °F 81.1 °F 59.0 °F 48% 30.05 in 10.0 mi NNW 3.5 mph - N/A   Clear
11:35 AM 80.6 °F 81.1 °F 59.0 °F 48% 30.05 in 10.0 mi NW 6.9 mph - N/A   Clear
11:55 AM 80.6 °F 80.8 °F 57.2 °F 45% 30.06 in 10.0 mi NW 6.9 mph - N/A   Clear
12:15 PM 80.6 °F 81.1 °F 59.0 °F 48% 30.05 in 10.0 mi NNW 6.9 mph - N/A   Clear
12:35 PM 82.4 °F 82.5 °F 59.0 °F 45% 30.06 in 10.0 mi Calm Calm - N/A   Clear
12:55 PM 82.4 °F 82.5 °F 59.0 °F 45% 30.06 in 10.0 mi NNE 3.5 mph - N/A   Clear
1:15 PM 82.4 °F 82.9 °F 60.8 °F 48% 30.06 in 10.0 mi NNW 3.5 mph - N/A   Clear
1:35 PM 84.2 °F 84.4 °F 60.8 °F 45% 30.06 in 10.0 mi North 4.6 mph - N/A   Clear
1:55 PM 82.4 °F 82.9 °F 60.8 °F 48% 30.06 in 10.0 mi Calm Calm - N/A   Clear
2:15 PM 82.4 °F 82.9 °F 60.8 °F 48% 30.05 in 10.0 mi North 5.8 mph - N/A   Clear
2:35 PM 82.4 °F 82.9 °F 60.8 °F 48% 30.05 in 10.0 mi North 5.8 mph - N/A   Clear
2:55 PM 82.4 °F 82.9 °F 60.8 °F 48% 30.04 in 10.0 mi North 4.6 mph - N/A   Clear
3:15 PM 82.4 °F 82.9 °F 60.8 °F 48% 30.05 in 10.0 mi NNE 3.5 mph - N/A   Clear
3:35 PM 82.4 °F 82.9 °F 60.8 °F 48% 30.04 in 10.0 mi NNE 3.5 mph - N/A   Clear
3:55 PM 82.4 °F 82.9 °F 60.8 °F 48% 30.05 in 10.0 mi NNW 4.6 mph - N/A   Clear
4:15 PM 82.4 °F 82.9 °F 60.8 °F 48% 30.04 in 10.0 mi North 6.9 mph - N/A   Clear
4:35 PM 82.4 °F 82.9 °F 60.8 °F 48% 30.04 in 10.0 mi North 6.9 mph - N/A   Clear
4:55 PM 80.6 °F 81.5 °F 60.8 °F 51% 30.04 in 10.0 mi North 8.1 mph - N/A   Clear
5:15 PM 80.6 °F 81.5 °F 60.8 °F 51% 30.04 in 10.0 mi North 8.1 mph - N/A   Clear
5:35 PM 80.6 °F 81.5 °F 60.8 °F 51% 30.04 in 10.0 mi NNE 10.4 mph 16.1 mph N/A   Clear
5:55 PM 78.8 °F - 59.0 °F 51% 30.05 in 10.0 mi NNE 9.2 mph - N/A   Clear
6:15 PM 78.8 °F - 60.8 °F 54% 30.06 in 10.0 mi NNE 8.1 mph - N/A   Clear
6:35 PM 77.0 °F - 55.4 °F 47% 30.06 in 10.0 mi ENE 8.1 mph - N/A   Clear
6:55 PM 75.2 °F - 53.6 °F 47% 30.07 in 10.0 mi ENE 8.1 mph - N/A   Clear
7:15 PM 73.4 °F - 51.8 °F 47% 30.07 in 10.0 mi East 6.9 mph - N/A   Clear
7:35 PM 73.4 °F - 50.0 °F 44% 30.07 in 10.0 mi East 9.2 mph - N/A   Clear
8:15 PM 71.6 °F - 50.0 °F 46% 30.09 in 10.0 mi East 6.9 mph - N/A   Clear
8:35 PM 69.8 °F - 51.8 °F 53% 30.10 in 10.0 mi East 6.9 mph - N/A   Clear
8:55 PM 69.8 °F - 50.0 °F 49% 30.10 in 10.0 mi East 5.8 mph - N/A   Clear
9:15 PM 69.8 °F - 50.0 °F 49% 30.10 in 10.0 mi East 6.9 mph - N/A   Clear
9:35 PM 68.0 °F - 48.2 °F 49% 30.10 in 10.0 mi East 5.8 mph - N/A   Clear
9:55 PM 68.0 °F - 48.2 °F 49% 30.11 in 10.0 mi ENE 5.8 mph - N/A   Clear
10:15 PM 68.0 °F - 46.4 °F 46% 30.11 in 10.0 mi East 4.6 mph - N/A   Clear
10:35 PM 66.2 °F - 46.4 °F 49% 30.12 in 10.0 mi East 5.8 mph - N/A   Clear
10:55 PM 66.2 °F - 46.4 °F 49% 30.12 in 10.0 mi East 4.6 mph - N/A   Clear
11:15 PM 66.2 °F - 46.4 °F 49% 30.12 in 10.0 mi Calm Calm - N/A   Clear
11:35 PM 66.2 °F - 46.4 °F 49% 30.13 in 10.0 mi NE 4.6 mph - N/A   Clear
11:55 PM 66.2 °F - 46.4 °F 49% 30.13 in 10.0 mi ENE 4.6 mph - N/A   Clear